Regional Weather Roundup
Issued by NWS Lake Charles, LA

Home | Current Version | Previous Version | Text Only | Print | Product List | Glossary On
Versions: 1 2 3 4 5 6 7 8 9 10 11 12 13 14 15 16 17 18 19 20 21 22 23 24 25 26 27 28 29 30 31 32 33 34 35 36 37 38 39 40 41 42 43 44 45 46 47 48 49 50
000
ASUS44 KLCH 240110
RWRLCH
RWRLCH
REGIONAL WEATHER ROUNDUP
NATIONAL WEATHER SERVICE LAKE CHARLES LA
700 PM CST SUN NOV 23 2014

Note: "fair" indicates few or no clouds below 12,000 feet with no
significant weather and/or obstructions to visibility.


ACROSS SOUTHEAST TEXAS

CITY           SKY/WX    TMP DP  RH WIND       PRES   REMARKS
BEAUMONT       CLEAR     65  60  84 SW12G21   29.61R
BEAUMONT CITY    N/A     63  58  84 S10G16    29.61R
ORANGE         CLEAR     65  60  82 SW7       29.63R
JASPER         CLEAR     61  56  85 S5        29.61R
$$

ACROSS CENTRAL LOUISIANA

CITY           SKY/WX    TMP DP  RH WIND       PRES   REMARKS
LEESVILLE      CLEAR     64  59  84 S8        29.59R
FULLERTON      NOT AVBL
ALEXANDRIA INT CLEAR     64  58  80 S9        29.57R
ESLER FIELD    CLEAR     65  59  81 SW8G17    29.58R
DERIDDER         N/A     63  59  86 S8        29.61R
OAKDALE        CLEAR     65  61  86 S6        29.61R
OPELOUSAS        N/A     67  64  90 S14G21    29.62R
$$

ACROSS SOUTHWEST AND SOUTH CENTRAL LOUISIANA

CITY           SKY/WX    TMP DP  RH WIND       PRES   REMARKS
SULPHUR        CLEAR     67  63  86 S15       29.62R
LAKE CHARLES   CLEAR     66  63  90 SW12      29.61R
CHENNAULT INT  NOT AVBL
CAMERON PHI      N/A     64  63  94 SW13      29.66R
DEQUINCY         N/A     63  59  88 S7        29.61R
JENNINGS         N/A     66  64  91 SW10      29.63R
LAFAYETTE      PTCLDY    69  66  90 S12       29.64R
NEW IBERIA     MOCLDY    66  64  93 S12       29.66R
ABBEVILLE      MOCLDY    67  65  94 S12       29.65R
PATTERSON      CLOUDY    68  66  94 SW10      29.69R
SALT POINT       N/A    N/A N/A N/A VRB3      29.67R
$$

SELECTED SITES ACROSS THE REGION

CITY           SKY/WX    TMP DP  RH WIND       PRES   REMARKS
HOUSTON BUSH   CLEAR     72  53  51 SW5       29.60R
HOUSTON HOBBY  CLEAR     69  56  62 S9        29.60R
GALVESTON      CLEAR     64  61  90 S13       29.63R
COLLEGE STAT   PTCLDY    65  50  58 W8        29.59R
CONROE         CLEAR     59  54  83 SE3       29.60R
HUNTSVILLE     CLEAR     68  50  52 S7        29.58R
LUFKIN         CLEAR     68  53  58 S6        29.56R
SHREVEPORT     CLEAR     66  56  70 SW9       29.50R
MONROE         CLEAR     64  59  83 S9        29.52R
NATCHEZ MS     CLEAR     66  55  68 S10       29.60R
BATON ROUGE    MOCLDY    70  64  81 SW18G26   29.65R
N.O. INTL ARPT PTCLDY    67  62  84 S9        29.68S
SLIDELL        CLEAR     65  60  84 S7        29.67S
$$

MARINE REPORTS

STATION/POSITION TIME  TEMP    WIND        PRES    VSBY  WAVE
                       AIR SEA DIR/SP/G                  HT/PER
                 (UTC) (F)     (DEG/KT/KT) (MB)    (MI)  (FT/S)
BUOY 30 S HIGH I 0100   65 62  210/ 12/ 12 1003.1R         4/ 7
SEA RIM ST PARK  0100   65     210/ 15/ 17 1003.5R
PORT ARTHUR      0100      60  210/ 13/ 19 1002.6R
SABINE PASS N    0100   66 59  220/ 12/ 22 1002.4S
TEXAS POINT      NOT AVBL
CALCASIEU PASS   0100   65 59  220/ 16/ 18   N/A
LK CHARLES BEACH 0100   67 62              1002.7R
MARSH ISLAND     NOT AVBL
FRESH WATER LOCK 0100   65 61  180/  8/ 11 1004.3R
AMERADA PASS     0100   66 59  180/  4/ 10 1004.8R
$$


USA.gov is the U.S. government's official web portal to all federal, state and local government web resources and services.